Simultaneous Nadir Overpasses (SNOs) Predictions

Prediction of SNOs near equator between AQUA and NPP Satellite Orbit:

Table of predicted SNOs near equator for the next 14.0 days since TLE Epoch: 5/1/2021
Index Date (AQUA) Time (AQUA) AQUA Lat,Lon Date (NPP) Time (NPP) NPP Lat,Lon Distance(km) Time Diff (sec)
1 05/03/2021 08:41:43 -4.60,-107.23 05/03/2021 08:32:10 -4.51,-107.56 38.94 573
2 05/03/2021 09:29:58 -0.01, 61.37 05/03/2021 09:21:41 -0.11, 60.76 68.81 497
3 05/03/2021 10:18:05 4.52,-130.01 05/03/2021 10:11:03 4.72,-130.87 98.42 422
4 05/06/2021 00:15:49 29.99,-164.84 05/06/2021 00:05:49 30.49,-165.45 80.58 600
5 05/06/2021 00:57:41 -2.85, 9.03 05/06/2021 00:48:37 -2.77, 8.59 49.93 544
6 05/06/2021 01:45:57 -1.70, 177.62 05/06/2021 01:38:08 -1.85, 176.91 79.71 469
7 05/08/2021 16:25:34 5.70, -43.35 05/08/2021 16:15:43 5.65, -43.63 30.94 591
8 05/08/2021 17:13:41 -1.17, 125.27 05/08/2021 17:05:05 -1.03, 124.74 61.09 516
9 05/08/2021 18:01:56 -3.43, -66.13 05/08/2021 17:54:36 -3.58, -66.93 90.68 440
10 05/11/2021 08:41:33 3.97, 72.90 05/11/2021 08:32:10 3.86, 72.54 42.14 563
11 05/11/2021 09:29:39 0.62,-118.46 05/11/2021 09:21:32 0.76,-119.10 72.05 487
12 05/14/2021 00:13:48 -23.17, 16.89 05/14/2021 00:03:48 -23.21, 16.46 43.66 600
13 05/14/2021 00:57:32 2.25,-170.85 05/14/2021 00:48:38 2.13,-171.31 53.26 534
14 05/14/2021 01:45:38 2.34, -2.21 05/14/2021 01:38:00 2.49, -2.95 83.13 458
